カタログに戻る

KUIPER-00516

運用中通信VLEO
NORAD 69599·PAYLOAD·🇺🇸 United States

打ち上げ Jun 17, 2026 から Guiana Space Centre

Loading…

次のパス (今後24時間)

TLE

最新Source: CelesTrak SupGP

元期: Sep 14, 2026, 16:15 UTC

1 69599C 26140H   26257.67710648 -.01265700  00000+0 -58730-1 0  2575
2 69599  51.8823 326.6707 0006739 195.0255 125.9781 15.20738361    10

AllMySatでKUIPER-00516をリアルタイム追跡

Download on the App Store